Regional Weather Roundup
Issued by NWS

Home | Current Version | Previous Version | Graphics & Text | Print | Product List | Glossary On
Versions: 1 2 3 4 5 6 7 8 9 10 11 12 13 14 15 16 17 18 19 20 21 22 23 24 25 26 27 28 29 30 31 32 33 34 35 36 37 38 39 40 41 42 43 44 45 46 47 48 49 50
231
ASUS43 KFSD 201502
RWRSD

WEATHER ROUNDUP FOR SOUTH DAKOTA
NATIONAL WEATHER SERVICE SIOUX FALLS SD
1000 AM CDT THU JUL 20 2017

NOTE: "FAIR" INDICATES FEW OR NO CLOUDS BELOW 12,000 FEET WITH NO
SIGNIFICANT WEATHER AND/OR OBSTRUCTIONS TO VISIBILITY.


SDZ001>005-009-010-012>017-201600-
NORTHWEST AND NORTH CENTRAL SOUTH DAKOTA

CITY           SKY/WX    TMP DP  RH WIND       PRES   REMARKS
BUFFALO          N/A     78  66  66 S21G30    29.97S
FAITH            N/A     77  68  73 SE14      30.04F
MOBRIDGE       PTSUNNY   75  71  87 CALM      30.02S
$$

SDZ012>016-024>037-041>051-057-063-072>074-201600-
SOUTHWEST AND SOUTH CENTRAL SOUTH DAKOTA

CITY           SKY/WX    TMP DP  RH WIND       PRES   REMARKS
RAPID CTY ARPT SUNNY     78  67  68 S6        30.08F
PIERRE         PTSUNNY   80  64  58 SE12      30.02R
CUSTER         CLOUDY    75  54  47 VRB5      30.25R
ELLSWORTH AFB  SUNNY     80  68  66 S9        30.07F
PHILIP         SUNNY     83  68  60 SE9       30.03S
PINE RIDGE     MOSUNNY   78  68  71 W3        30.12R
SPEARFISH      FAIR      81  61  50 CALM      30.09F
WINNER         FAIR      80  69  69 CALM      30.04R
$$

SDZ004>011-016>023-039-040-201600-
NORTHEAST SOUTH DAKOTA

CITY           SKY/WX    TMP DP  RH WIND       PRES   REMARKS
ABERDEEN       CLOUDY    75  71  87 S3        30.04S
WATERTOWN      CLOUDY    75  68  78 NE5       30.03F
BROOKINGS      CLOUDY    76  67  73 E7        30.04S
SISSETON         N/A     76  71  85 VRB3      30.01F
$$

SDZ017-020-022-023-036>040-048>070-201600-
SOUTHEAST SOUTH DAKOTA

CITY           SKY/WX    TMP DP  RH WIND       PRES   REMARKS
SIOUX FALLS    CLOUDY    79  69  71 E10       30.01R
HURON          PTSUNNY   74  70  87 E6        30.00F
CHAMBERLAIN    CLOUDY    81  70  70 E10       30.04R
MITCHELL       CLOUDY    77  70  79 SE10      30.02R
YANKTON        CLOUDY    77  69  76 CALM      30.02R
$$

ABBREVIATIONS USED IN REMARKS
   TC - TEMPERATURE IN CELSIUS
  WCI - WIND CHILL INDEX
   HX - HEAT INDEX
  VSB - VISIBILITY





USA.gov is the U.S. government's official web portal to all federal, state and local government web resources and services.